ONEWEB-0178

Last updated on April 25, 2021, 12:02 a.m. UTC

1 48075U 21025AK  21114.58336806 -.01070009  00000-0 -37278-1 0  9999
2 48075  87.4238 339.2951 0013205 133.9951  30.7220 15.32344482  1766
UTC
Height (km)
Latitude
Longitude
Inclination
Orbital Period
UTC large
Height (km)
Speed (km/s)
/
Latitude / Longitude
Inclination (degrees)
Orbital Period (minutes)
Azimuth
Elevation
Range (km)
Doppler Factor
iOS Compass Heading
iOS Angle

Next 30 passes for location: Hong Kong

Rise time Rise Azimuth (degrees) Set time Set Azimuth (degrees) Duration Max altitude (degrees)

No matching passes for this satellites